Atmospheric History
06/18/2019 19:56  to  6/19/2019 19:56
Change End Date:
To complete the export process:
1) Select all of the data below
2) Copy the data to the clipboard
3) Open a word processor such as Notepad
4) Paste the data into the word processor
5) Save the file

Date/Time (MDT), AirTemp, RH, Dewpoint ,AvgWindSpeed, GustWindSpeed, WindDirection, PrecipType, PrecipIntensity, PrecipAccumulation, PrecipRate ,Visibility
06/19/2019 19:47, , ,   ,30, 38, N, None, None, 0, 0 ,6560
06/19/2019 19:37, , ,   ,21, 27, N, None, None, 0, 0 ,6560
06/19/2019 19:30, , ,   ,21, 28, N, None, None, 0, 0 ,6560
06/19/2019 19:27, , ,   ,20, 32, N, None, None, 0, 0 ,6560
06/19/2019 19:17, , ,   ,25, 29, N, None, None, 0, 0 ,6560
06/19/2019 19:07, , ,   ,21, 30, N, None, None, 0, 0 ,6560
06/19/2019 19:00, , ,   ,23, 30, N, None, None, 0, 0 ,6560
06/19/2019 18:57, , ,   ,21, 30, N, None, None, 0, 0 ,6560
06/19/2019 18:47, , ,   ,21, 29, N, None, None, 0, 0 ,6560
06/19/2019 18:37, , ,   ,18, 30, N, None, None, 0, 0 ,6560
06/19/2019 18:30, , ,   ,20, 24, N, None, None, 0, 0 ,6560
06/19/2019 18:27, , ,   ,16, 24, N, None, None, 0, 0 ,6560
06/19/2019 18:17, , ,   ,21, 35, N, None, None, 0, 0 ,6560
06/19/2019 18:07, , ,   ,29, 35, N, None, None, 0, 0 ,6560
06/19/2019 18:00, , ,   ,24, 38, N, None, None, 0, 0 ,6560
06/19/2019 17:57, , ,   ,30, 38, N, None, None, 0, 0 ,6560
06/19/2019 17:47, , ,   ,28, 38, N, None, None, 0, 0 ,6560
06/19/2019 17:37, , ,   ,27, 35, N, None, None, 0, 0 ,6560
06/19/2019 17:30, , ,   ,23, 34, N, None, None, 0, 0 ,6560
06/19/2019 17:27, , ,   ,29, 36, N, None, None, 0, 0 ,6560
06/19/2019 17:16, , ,   ,30, 39, N, None, None, 0, 0 ,6560
06/19/2019 17:06, , ,   ,33, 37, N, None, None, 0, 0 ,6560
06/19/2019 17:00, , ,   ,26, 31, N, None, None, 0, 0 ,6560
06/19/2019 16:56, , ,   ,19, 29, N, None, None, 0, 0 ,6560
06/19/2019 16:46, , ,   ,23, 34, N, None, None, 0, 0 ,6560
06/19/2019 16:36, , ,   ,24, 29, N, Rain, Slight, 0, 0 ,6560
06/19/2019 16:30, , ,   ,23, 33, N, Rain, Slight, 0, 0 ,6560
06/19/2019 16:26, , ,   ,24, 36, N, Rain, Slight, 0, 0 ,6560
06/19/2019 16:16, , ,   ,30, 35, N, Rain, Slight, 0, 0 ,6560
06/19/2019 16:06, , ,   ,24, 37, N, Rain, Slight, 0, 0 ,6560
06/19/2019 16:00, , ,   ,27, 41, N, None, None, 0, 0 ,6560
06/19/2019 15:56, , ,   ,29, 42, N, Rain, Moderate, 0, 0 ,6560
06/19/2019 15:46, , ,   ,32, 41, N, None, None, 0, 0 ,6560
06/19/2019 15:36, , ,   ,27, 38, N, None, None, 0, 0 ,6560
06/19/2019 15:30, , ,   ,31, 38, N, None, None, 0, 0 ,6560
06/19/2019 15:26, , ,   ,29, 38, N, None, None, 0, 0 ,6560
06/19/2019 15:16, , ,   ,23, 34, N, None, None, 0, 0 ,6560
06/19/2019 15:06, , ,   ,23, 32, N, None, None, 0, 0 ,6560
06/19/2019 15:00, , ,   ,22, 37, N, None, None, 0, 0 ,6560
06/19/2019 14:56, , ,   ,25, 37, N, None, None, 0, 0 ,6560
06/19/2019 14:45, , ,   ,24, 31, N, None, None, 0, 0 ,6560
06/19/2019 14:35, , ,   ,24, 32, N, None, None, 0, 0 ,6560
06/19/2019 14:30, , ,   ,29, 32, N, None, None, 0, 0 ,6560
06/19/2019 14:25, , ,   ,28, 37, N, None, None, 0, 0 ,6560
06/19/2019 14:15, , ,   ,27, 35, N, None, None, 0, 0 ,6560
06/19/2019 14:05, , ,   ,26, 37, N, None, None, 0, 0 ,6560
06/19/2019 14:00, , ,   ,32, 42, N, None, None, 0, 0 ,6560
06/19/2019 13:55, , ,   ,34, 42, N, None, None, 0, 0 ,6560
06/19/2019 13:45, , ,   ,32, 42, N, None, None, 0, 0 ,6560
06/19/2019 13:35, , ,   ,32, 40, N, None, None, 0, 0 ,6560
06/19/2019 13:30, , ,   ,30, 38, N, None, None, 0, 0 ,6560
06/19/2019 13:25, , ,   ,23, 35, N, None, None, 0, 0 ,6560
06/19/2019 13:15, , ,   ,21, 28, N, None, None, 0, 0 ,6560
06/19/2019 13:05, , ,   ,25, 32, N, None, None, 0, 0 ,6560
06/19/2019 13:00, , ,   ,19, 26, N, None, None, 0, 0 ,6560
06/19/2019 12:55, , ,   ,19, 25, N, None, None, 0, 0 ,6560
06/19/2019 12:45, , ,   ,24, 29, N, None, None, 0, 0 ,6560
06/19/2019 12:35, , ,   ,21, 27, N, None, None, 0, 0 ,6560
06/19/2019 12:25, , ,   ,19, 27, N, None, None, 0, 0 ,6560
06/19/2019 12:15, , ,   ,20, 29, N, None, None, 0, 0 ,6560
06/19/2019 12:05, , ,   ,20, 25, N, None, None, 0, 0 ,6560
06/19/2019 12:00, , ,   ,19, 25, N, None, None, 0, 0 ,6560
06/19/2019 11:55, , ,   ,21, 29, N, None, None, 0, 0 ,6560
06/19/2019 11:45, , ,   ,21, 29, N, None, None, 0, 0 ,6560
06/19/2019 11:35, , ,   ,22, 28, N, None, None, 0, 0 ,6560
06/19/2019 11:30, , ,   ,15, 27, N, None, None, 0, 0 ,6560
06/19/2019 11:25, , ,   ,23, 27, N, None, None, 0, 0 ,6560
06/19/2019 11:15, , ,   ,24, 27, N, None, None, 0, 0 ,6560
06/19/2019 11:05, , ,   ,22, 29, N, None, None, 0, 0 ,6560
06/19/2019 11:00, , ,   ,22, 28, N, None, None, 0, 0 ,6560
06/19/2019 10:54, , ,   ,20, 26, N, None, None, 0, 0 ,6560
06/19/2019 10:44, , ,   ,21, 27, N, None, None, 0, 0 ,6560
06/19/2019 10:34, , ,   ,19, 24, N, None, None, 0, 0 ,6560
06/19/2019 10:30, , ,   ,17, 25, N, None, None, 0, 0 ,6560
06/19/2019 10:24, , ,   ,20, 25, N, None, None, 0, 0 ,6560
06/19/2019 10:14, , ,   ,21, 24, N, None, None, 0, 0 ,6560
06/19/2019 10:04, , ,   ,16, 22, N, None, None, 0, 0 ,6560
06/19/2019 10:00, , ,   ,17, 22, N, None, None, 0, 0 ,6560
06/19/2019 09:54, , ,   ,15, 20, N, None, None, 0, 0 ,6560
06/19/2019 09:44, , ,   ,12, 17, N, None, None, 0, 0 ,6560
06/19/2019 09:34, , ,   ,14, 21, N, None, None, 0.01, 0 ,6560
06/19/2019 09:30, , ,   ,14, 21, N, None, None, 0.01, 0 ,6560
06/19/2019 09:24, , ,   ,17, 21, N, None, None, 0.01, 0 ,6560
06/19/2019 09:14, , ,   ,16, 22, N, None, None, 0.01, 0 ,6560
06/19/2019 09:04, , ,   ,17, 21, N, None, None, 0.01, 0 ,6560
06/19/2019 09:00, , ,   ,15, 22, N, None, None, 0.01, 0 ,6560
06/19/2019 08:54, , ,   ,15, 22, N, None, None, 0.01, 0 ,6560
06/19/2019 08:44, , ,   ,15, 18, N, None, None, 0.01, 0 ,6560
06/19/2019 08:34, , ,   ,15, 19, N, None, None, 0.01, 0 ,6560
06/19/2019 08:30, , ,   ,12, 19, N, None, None, 0.01, 0 ,6560
06/19/2019 08:24, , ,   ,11, 13, N, None, None, 0.01, 0 ,6560
06/19/2019 08:14, , ,   ,11, 14, N, None, None, 0.01, 0 ,6560
06/19/2019 08:04, , ,   ,13, 17, N, None, None, 0.01, 0 ,6560
06/19/2019 08:00, , ,   ,11, 13, N, None, None, 0.01, 0 ,6560
06/19/2019 07:54, , ,   ,10, 12, N, None, None, 0.01, 0 ,6560
06/19/2019 07:44, , ,   ,9, 12, N, None, None, 0.01, 0 ,6560
06/19/2019 07:34, , ,   ,11, 12, N, None, None, 0.01, 0 ,6560
06/19/2019 07:30, , ,   ,10, 12, N, None, None, 0.01, 0 ,6560
06/19/2019 07:24, , ,   ,9, 11, N, None, None, 0.01, 0 ,6560
06/19/2019 07:14, , ,   ,8, 11, N, None, None, 0.01, 0 ,6560
06/19/2019 07:03, , ,   ,10, 11, N, None, None, 0.01, 0 ,6560
06/19/2019 07:00, , ,   ,10, 11, N, None, None, 0.01, 0 ,6560
06/19/2019 06:53, , ,   ,9, 11, N, None, None, 0.01, 0 ,6560
06/19/2019 06:43, , ,   ,10, 12, N, None, None, 0.01, 0 ,6560
06/19/2019 06:33, , ,   ,10, 12, N, None, None, 0.01, 0 ,6560
06/19/2019 06:30, , ,   ,11, 12, N, None, None, 0.01, 0 ,6560
06/19/2019 06:23, , ,   ,11, 12, N, None, None, 0.01, 0 ,6560
06/19/2019 06:13, , ,   ,9, 11, N, None, None, 0.01, 0 ,6560
06/19/2019 06:03, , ,   ,7, 11, N, None, None, 0.01, 0 ,6560
06/19/2019 06:00, , ,   ,9, 12, N, None, None, 0.01, 0 ,6560
06/19/2019 05:53, , ,   ,10, 13, N, None, None, 0.01, 0 ,6560
06/19/2019 05:43, , ,   ,10, 15, N, None, None, 0.01, 0 ,6560
06/19/2019 05:33, , ,   ,10, 13, N, None, None, 0.01, 0 ,6560
06/19/2019 05:30, , ,   ,8, 12, N, None, None, 0.01, 0 ,6560
06/19/2019 05:23, , ,   ,7, 9, N, None, None, 0.01, 0 ,6560
06/19/2019 05:13, , ,   ,5, 7, N, None, None, 0.01, 0 ,6560
06/19/2019 05:03, , ,   ,5, 7, N, None, None, 0.01, 0 ,6560
06/19/2019 05:00, , ,   ,2, 5, N, None, None, 0.01, 0 ,6560
06/19/2019 04:53, , ,   ,4, 6, N, None, None, 0.01, 0 ,6560
06/19/2019 04:43, , ,   ,5, 9, N, None, None, 0.01, 0 ,6560
06/19/2019 04:33, , ,   ,4, 6, N, None, None, 0.01, 0 ,6560
06/19/2019 04:30, , ,   ,4, 5, N, None, None, 0.01, 0 ,6560
06/19/2019 04:23, , ,   ,4, 5, N, None, None, 0.01, 0 ,6560
06/19/2019 04:13, , ,   ,4, 8, N, None, None, 0.01, 0 ,6560
06/19/2019 04:03, , ,   ,8, 9, N, None, None, 0.01, 0 ,6560
06/19/2019 04:00, , ,   ,6, 7, N, None, None, 0.01, 0 ,6560
06/19/2019 03:53, , ,   ,6, 7, N, None, None, 0.01, 0 ,6560
06/19/2019 03:43, , ,   ,4, 5, N, None, None, 0.01, 0 ,6560
06/19/2019 03:33, , ,   ,3, 6, N, None, None, 0.01, 0 ,6560
06/19/2019 03:30, , ,   ,4, 6, N, None, None, 0.01, 0 ,6560
06/19/2019 03:22, , ,   ,6, 7, N, None, None, 0.01, 0 ,6560
06/19/2019 03:12, , ,   ,7, 9, N, None, None, 0.01, 0 ,6560
06/19/2019 03:02, , ,   ,7, 7, N, None, None, 0.01, 0 ,6560
06/19/2019 03:00, , ,   ,6, 7, N, None, None, 0.01, 0 ,6560
06/19/2019 02:52, , ,   ,6, 7, N, None, None, 0.01, 0 ,6560
06/19/2019 02:42, , ,   ,2, 6, N, None, None, 0.01, 0 ,6560
06/19/2019 02:32, , ,   ,0, 3, N, None, None, 0.01, 0 ,6560
06/19/2019 02:30, , ,   ,1, 6, N, None, None, 0.01, 0 ,6560
06/19/2019 02:22, , ,   ,4, 6, N, None, None, 0.01, 0 ,6560
06/19/2019 02:12, , ,   ,4, 4, N, None, None, 0.01, 0 ,6560
06/19/2019 02:02, , ,   ,0, 1, N, None, None, 0.01, 0 ,6560
06/19/2019 02:00, , ,   ,0, 3, N, None, None, 0.01, 0 ,6560
06/19/2019 01:52, , ,   ,2, 10, N, None, None, 0.01, 0 ,6560
06/19/2019 01:42, , ,   ,12, 17, N, None, None, 0.01, 0 ,6560
06/19/2019 01:32, , ,   ,9, 12, N, None, None, 0.01, 0 ,6560
06/19/2019 01:30, , ,   ,9, 12, N, None, None, 0.01, 0 ,6560
06/19/2019 01:22, , ,   ,7, 9, N, None, None, 0.01, 0 ,6560
06/19/2019 01:12, , ,   ,6, 8, N, None, None, 0.01, 0 ,6560
06/19/2019 01:02, , ,   ,2, 4, N, None, None, 0.01, 0 ,6560
06/19/2019 01:00, , ,   ,2, 3, N, None, None, 0.01, 0 ,6560
06/19/2019 00:52, , ,   ,2, 4, N, None, None, 0.01, 0 ,6560
06/19/2019 00:42, , ,   ,1, 4, N, None, None, 0.01, 0 ,6560
06/19/2019 00:32, , ,   ,3, 4, N, None, None, 0.01, 0 ,6560
06/19/2019 00:30, , ,   ,3, 4, N, None, None, 0.01, 0 ,6560
06/19/2019 00:22, , ,   ,2, 3, N, None, None, 0.01, 0 ,6560
06/19/2019 00:12, , ,   ,1, 2, N, None, None, 0.01, 0 ,6560
06/19/2019 00:01, , ,   ,1, 4, N, None, None, 0.01, 0 ,6560
06/19/2019 00:00, , ,   ,0, 4, N, None, None, 0.01, 0 ,6560
06/18/2019 23:51, , ,   ,3, 7, N, None, None, 0.01, 0 ,6560
06/18/2019 23:41, , ,   ,7, 9, N, None, None, 0.01, 0 ,6560
06/18/2019 23:31, , ,   ,7, 9, N, None, None, 0.01, 0 ,6560
06/18/2019 23:30, , ,   ,7, 9, N, None, None, 0.01, 0 ,6560
06/18/2019 23:21, , ,   ,7, 9, N, None, None, 0.01, 0 ,6560
06/18/2019 23:11, , ,   ,9, 11, N, None, None, 0.01, 0 ,6560
06/18/2019 23:01, , ,   ,10, 11, N, None, None, 0.01, 0 ,6560
06/18/2019 23:00, , ,   ,9, 10, N, None, None, 0.01, 0 ,6560
06/18/2019 22:51, , ,   ,8, 9, N, None, None, 0.01, 0 ,6560
06/18/2019 22:41, , ,   ,7, 8, N, None, None, 0.01, 0 ,6560
06/18/2019 22:31, , ,   ,6, 9, N, None, None, 0.01, 0 ,6560
06/18/2019 22:30, , ,   ,7, 9, N, None, None, 0.01, 0 ,6560
06/18/2019 22:21, , ,   ,7, 7, N, None, None, 0.01, 0 ,6560
06/18/2019 22:11, , ,   ,1, 2, N, None, None, 0.01, 0 ,6560
06/18/2019 22:01, , ,   ,0, 1, N, None, None, 0.01, 0 ,6560
06/18/2019 22:00, , ,   ,0, 1, N, None, None, 0.01, 0 ,6560
06/18/2019 21:51, , ,   ,0, 0, N, None, None, 0.01, 0 ,6560
06/18/2019 21:41, , ,   ,0, 0, N, None, None, 0.01, 0 ,6560
06/18/2019 21:31, , ,   ,0, 0, N, None, None, 0.01, 0 ,6560
06/18/2019 21:30, , ,   ,0, 0, N, None, None, 0.01, 0 ,6560
06/18/2019 21:21, , ,   ,0, 2, N, None, None, 0.01, 0 ,6560
06/18/2019 21:11, , ,   ,2, 3, N, None, None, 0.01, 0 ,6560
06/18/2019 21:01, , ,   ,1, 6, N, None, None, 0.01, 0 ,6560
06/18/2019 21:00, , ,   ,1, 6, N, None, None, 0.01, 0 ,6560
06/18/2019 20:51, , ,   ,6, 7, N, None, None, 0.01, 0 ,6560
06/18/2019 20:41, , ,   ,6, 7, N, None, None, 0.01, 0 ,6560
06/18/2019 20:31, , ,   ,5, 6, N, None, None, 0.01, 0 ,6560
06/18/2019 20:30, , ,   ,5, 6, N, None, None, 0.01, 0 ,6560
06/18/2019 20:21, , ,   ,6, 7, N, None, None, 0.01, 0 ,6560
06/18/2019 20:10, , ,   ,6, 9, N, None, None, 0.01, 0 ,6560
06/18/2019 20:00, , ,   ,7, 10, N, None, None, 0.01, 0 ,6560
06/18/2019 20:00, , ,   ,7, 10, N, None, None, 0.01, 0 ,6560
Change End Date:

Copyright © 1998-2015 Vaisala, Inc.
All Rights Reserved
Send comments about the data to:
SCAN Web ® is a registered trademark of Vaisala, Inc.
SCAN Web Version 6.0